QPF
0.01 0.00 0.01 0.02 0.01 0.02 0.03 0.05 0.05 0.05 0.03 0.02 0.02 0.02 0.02 0.02 0.02 0.02 0.01 0.01 0.00 0.00 0.00 0.01 0.01 0.01 0.01 0.02 0.03 0.04 0.04 0.04 0.03 0.02 0.01 0.01 0.02 0.03 0.02 0.02 0.03 0.03 0.03
0.01 0.01 0.01 0.02 0.02 0.01 0.01 0.02 0.04 0.05 0.03 0.02 0.02 0.02 0.02 0.02 0.02 0.02 0.01 0.01 0.01 0.01 0.01 0.01 0.00 0.00 0.01 0.01 0.02 0.03 0.04 0.04 0.04 0.02 0.01 0.01 0.01 0.02 0.02 0.02 0.03 0.03 0.04
0.01 0.01 0.01 0.02 0.02 0.02 0.01 0.02 0.03 0.04 0.03 0.01 0.01 0.02 0.02 0.02 0.03 0.03 0.02 0.01 0.02 0.02 0.01 0.01 0.01 0.01 0.01 0.01 0.01 0.02 0.03 0.03 0.05 0.03 0.01 0.01 0.01 0.02 0.02 0.02 0.02 0.03 0.04
0.01 0.01 0.01 0.01 0.03 0.02 0.02 0.01 0.02 0.04 0.03 0.01 0.01 0.01 0.01 0.02 0.02 0.03 0.03 0.02 0.02 0.02 0.01 0.01 0.01 0.01 0.01 0.01 0.01 0.02 0.03 0.03 0.04 0.04 0.02 0.02 0.02 0.01 0.01 0.02 0.03 0.03 0.03
0.01 0.01 0.01 0.01 0.03 0.03 0.02 0.02 0.02 0.04 0.05 0.02 0.02 0.02 0.02 0.01 0.02 0.02 0.02 0.02 0.02 0.02 0.01 0.01 0.00 0.01 0.01 0.01 0.01 0.02 0.02 0.03 0.04 0.05 0.04 0.03 0.02 0.02 0.01 0.02 0.02 0.02 0.02
0.01 0.01 0.01 0.01 0.03 0.05 0.03 0.04 0.04 0.05 0.05 0.03 0.02 0.02 0.02 0.02 0.02 0.02 0.02 0.01 0.01 0.02 0.02 0.01 0.01 0.01 0.01 0.01 0.01 0.02 0.01 0.02 0.03 0.04 0.04 0.03 0.02 0.02 0.02 0.02 0.02 0.03 0.02
0.02 0.02 0.01 0.02 0.04 0.06 0.05 0.05 0.05 0.05 0.05 0.04 0.03 0.03 0.02 0.02 0.02 0.02 0.01 0.01 0.01 0.01 0.01 0.01 0.01 0.02 0.02 0.01 0.01 0.01 0.01 0.01 0.02 0.03 0.04 0.04 0.03 0.03 0.03 0.03 0.02 0.02 0.03
0.01 0.02 0.01 0.02 0.04 0.06 0.06 0.06 0.06 0.04 0.05 0.04 0.04 0.04 0.03 0.02 0.02 0.02 0.01 0.00 0.01 0.02 0.02 0.01 0.01 0.01 0.01 0.01 0.01 0.01 0.00 0.00 0.01 0.03 0.03 0.04 0.05 0.04 0.04 0.03 0.03 0.03 0.02
0.01 0.01 0.02 0.02 0.04 0.05 0.06 0.05 0.07 0.06 0.05 0.03 0.03 0.03 0.03 0.02 0.02 0.01 0.01 0.00 0.01 0.01 0.01 0.01 0.01 0.01 0.01 0.01 0.01 0.01 0.01 0.01 0.01 0.02 0.03 0.04 0.05 0.05 0.04 0.04 0.03 0.02 0.02
0.01 0.01 0.01 0.02 0.03 0.04 0.06 0.06 0.06 0.07 0.04 0.02 0.02 0.04 0.04 0.03 0.02 0.02 0.01 0.01 0.01 0.01 0.01 0.01 0.01 0.02 0.02 0.02 0.01 0.01 0.01 0.01 0.01 0.01 0.02 0.03 0.04 0.04 0.04 0.03 0.03 0.02 0.02
0.01 0.01 0.01 0.02 0.04 0.04 0.05 0.06 0.04 0.04 0.02 0.02 0.01 0.02 0.03 0.03 0.03 0.02 0.01 0.01 0.01 0.01 0.02 0.02 0.01 0.03 0.03 0.02 0.01 0.01 0.01 0.01 0.02 0.02 0.02 0.02 0.03 0.04 0.04 0.03 0.03 0.03 0.03
0.01 0.02 0.02 0.03 0.05 0.05 0.04 0.05 0.04 0.03 0.01 0.01 0.01 0.01 0.01 0.02 0.02 0.02 0.01 0.01 0.00 0.01 0.01 0.02 0.01 0.02 0.02 0.02 0.02 0.02 0.01 0.01 0.02 0.02 0.02 0.03 0.03 0.03 0.04 0.04 0.04 0.04 0.03
0.02 0.02 0.02 0.03 0.04 0.05 0.04 0.04 0.05 0.03 0.01 0.01 0.01 0.01 0.01 0.01 0.01 0.01 0.01 0.01 0.00 0.00 0.01 0.02 0.02 0.02 0.01 0.01 0.01 0.02 0.02 0.01 0.02 0.02 0.02 0.03 0.03 0.03 0.03 0.03 0.03 0.05 0.04
0.03 0.02 0.02 0.02 0.03 0.05 0.05 0.04 0.03 0.03 0.01 0.01 0.01 0.01 0.01 0.00 0.00 0.00 0.00 0.00 0.00 0.00 0.01 0.02 0.02 0.01 0.01 0.01 0.01 0.01 0.01 0.01 0.01 0.01 0.02 0.03 0.04 0.05 0.05 0.04 0.04 0.04 0.05
0.03 0.03 0.02 0.03 0.04 0.05 0.05 0.04 0.03 0.02 0.01 0.01 0.01 0.00 0.00 0.00 0.00 0.00 0.00 0.00 0.01 0.01 0.02 0.02 0.03 0.02 0.01 0.01 0.01 0.02 0.02 0.01 0.01 0.01 0.01 0.02 0.03 0.05 0.06 0.07 0.06 0.05 0.04
0.02 0.02 0.02 0.03 0.06 0.05 0.06 0.06 0.04 0.03 0.01 0.01 0.01 0.00 0.00 0.00 0.00 0.00 0.00 0.01 0.01 0.02 0.03 0.04 0.04 0.04 0.03 0.02 0.02 0.02 0.03 0.02 0.02 0.02 0.02 0.02 0.02 0.04 0.05 0.06 0.06 0.05 0.04
0.02 0.02 0.02 0.03 0.06 0.05 0.04 0.06 0.04 0.03 0.03 0.01 0.01 0.01 0.00 0.00 0.00 0.00 0.00 0.01 0.01 0.01 0.03 0.04 0.04 0.05 0.04 0.03 0.02 0.02 0.02 0.02 0.02 0.02 0.02 0.02 0.02 0.03 0.04 0.05 0.06 0.05 0.05
0.02 0.02 0.02 0.03 0.05 0.04 0.03 0.04 0.04 0.02 0.02 0.02 0.01 0.01 0.01 0.01 0.01 0.01 0.01 0.01 0.01 0.01 0.01 0.02 0.03 0.03 0.03 0.02 0.02 0.02 0.01 0.01 0.02 0.01 0.01 0.02 0.02 0.02 0.03 0.04 0.05 0.05 0.05
0.02 0.02 0.03 0.04 0.05 0.04 0.03 0.04 0.04 0.03 0.02 0.02 0.02 0.02 0.02 0.02 0.02 0.01 0.01 0.01 0.01 0.01 0.01 0.01 0.01 0.01 0.01 0.01 0.01 0.01 0.01 0.01 0.01 0.01 0.01 0.01 0.01 0.02 0.02 0.03 0.05 0.05 0.05
0.01 0.02 0.04 0.05 0.06 0.06 0.05 0.05 0.05 0.03 0.02 0.02 0.02 0.02 0.02 0.01 0.01 0.01 0.01 0.01 0.01 0.01 0.01 0.01 0.01 0.01 0.01 0.01 0.01 0.01 0.01 0.01 0.01 0.01 0.01 0.01 0.01 0.02 0.02 0.03 0.04 0.05 0.04
0.02 0.02 0.04 0.05 0.04 0.05 0.05 0.06 0.06 0.05 0.03 0.02 0.02 0.02 0.01 0.01 0.01 0.00 0.00 0.01 0.01 0.01 0.01 0.01 0.01 0.01 0.01 0.01 0.01 0.01 0.02 0.02 0.02 0.01 0.02 0.02 0.02 0.02 0.02 0.02 0.03 0.03 0.04
0.02 0.03 0.04 0.05 0.04 0.05 0.05 0.05 0.05 0.04 0.04 0.04 0.03 0.03 0.02 0.01 0.01 0.01 0.01 0.01 0.01 0.01 0.00 0.00 0.01 0.01 0.01 0.01 0.01 0.02 0.02 0.02 0.02 0.02 0.02 0.02 0.03 0.03 0.02 0.02 0.02 0.02 0.03
0.02 0.02 0.03 0.05 0.04 0.05 0.06 0.04 0.03 0.02 0.02 0.03 0.04 0.05 0.04 0.02 0.02 0.02 0.01 0.01 0.01 0.01 0.01 0.00 0.01 0.01 0.01 0.01 0.01 0.01 0.02 0.01 0.02 0.02 0.02 0.02 0.03 0.03 0.03 0.03 0.02 0.02 0.03
0.02 0.02 0.02 0.04 0.04 0.05 0.06 0.05 0.03 0.02 0.02 0.02 0.02 0.03 0.04 0.04 0.03 0.03 0.02 0.01 0.01 0.01 0.01 0.01 0.01 0.01 0.01 0.01 0.01 0.01 0.01 0.02 0.02 0.02 0.02 0.03 0.03 0.03 0.03 0.04 0.03 0.03 0.02
0.02 0.02 0.02 0.04 0.04 0.05 0.06 0.05 0.04 0.03 0.03 0.02 0.02 0.02 0.02 0.03 0.03 0.03 0.02 0.02 0.02 0.02 0.02 0.02 0.02 0.02 0.02 0.02 0.01 0.02 0.02 0.03 0.03 0.02 0.02 0.03 0.03 0.03 0.03 0.03 0.04 0.04 0.03
0.03 0.03 0.03 0.04 0.05 0.05 0.05 0.05 0.05 0.04 0.04 0.03 0.03 0.03 0.02 0.03 0.03 0.03 0.02 0.02 0.02 0.02 0.03 0.03 0.03 0.03 0.04 0.04 0.03 0.03 0.03 0.03 0.03 0.03 0.03 0.02 0.02 0.02 0.02 0.03 0.03 0.04 0.04
MSLP
1010.01 1009.39 1008.62 1007.73 1006.74 1005.72 1004.77 1003.97 1003.44 1003.23 1003.39 1003.92 1004.79 1005.90 1007.18 1008.52 1009.83 1011.04 1012.11 1013.03 1013.81 1014.49 1015.10 1015.67 1016.23 1016.78 1017.33 1017.86 1018.36 1018.82 1019.24 1019.63 1020.01 1020.39 1020.80 1021.24 1021.71 1022.19 1022.66 1023.10 1023.48 1023.79 1024.02
1009.40 1008.76 1007.97 1007.04 1006.01 1004.95 1003.94 1003.08 1002.49 1002.22 1002.33 1002.82 1003.68 1004.82 1006.16 1007.58 1008.99 1010.33 1011.52 1012.55 1013.42 1014.16 1014.80 1015.38 1015.92 1016.44 1016.96 1017.47 1017.97 1018.45 1018.91 1019.35 1019.79 1020.23 1020.68 1021.15 1021.63 1022.11 1022.57 1022.98 1023.35 1023.65 1023.88
1008.71 1008.03 1007.21 1006.25 1005.18 1004.09 1003.05 1002.16 1001.53 1001.23 1001.30 1001.77 1002.61 1003.76 1005.12 1006.60 1008.09 1009.52 1010.81 1011.95 1012.91 1013.72 1014.41 1015.02 1015.57 1016.10 1016.62 1017.14 1017.65 1018.17 1018.67 1019.17 1019.66 1020.14 1020.63 1021.12 1021.60 1022.06 1022.49 1022.88 1023.21 1023.49 1023.71
1007.95 1007.23 1006.36 1005.36 1004.28 1003.18 1002.14 1001.25 1000.62 1000.31 1000.37 1000.83 1001.66 1002.79 1004.16 1005.65 1007.18 1008.67 1010.04 1011.25 1012.29 1013.18 1013.93 1014.58 1015.18 1015.74 1016.28 1016.83 1017.38 1017.93 1018.48 1019.03 1019.57 1020.10 1020.61 1021.10 1021.57 1022.01 1022.40 1022.75 1023.05 1023.29 1023.50
1007.15 1006.35 1005.43 1004.40 1003.32 1002.23 1001.22 1000.38 999.79 999.52 999.60 1000.06 1000.88 1002.00 1003.35 1004.83 1006.36 1007.86 1009.26 1010.52 1011.62 1012.57 1013.38 1014.09 1014.73 1015.34 1015.93 1016.52 1017.11 1017.71 1018.31 1018.89 1019.47 1020.02 1020.55 1021.04 1021.50 1021.91 1022.27 1022.58 1022.84 1023.06 1023.25
1006.30 1005.42 1004.43 1003.38 1002.30 1001.26 1000.32 999.57 999.06 998.86 999.00 999.49 1000.32 1001.43 1002.75 1004.20 1005.70 1007.18 1008.57 1009.84 1010.97 1011.95 1012.81 1013.57 1014.27 1014.92 1015.56 1016.19 1016.83 1017.46 1018.09 1018.71 1019.31 1019.88 1020.41 1020.89 1021.33 1021.72 1022.05 1022.34 1022.57 1022.77 1022.95
1005.40 1004.41 1003.36 1002.29 1001.23 1000.26 999.42 998.79 998.41 998.33 998.57 999.13 999.99 1001.09 1002.38 1003.78 1005.23 1006.66 1008.01 1009.26 1010.38 1011.38 1012.27 1013.07 1013.81 1014.51 1015.19 1015.86 1016.53 1017.19 1017.84 1018.47 1019.07 1019.64 1020.16 1020.63 1021.06 1021.43 1021.75 1022.02 1022.25 1022.44 1022.61
1004.44 1003.34 1002.22 1001.13 1000.11 999.22 998.51 998.03 997.82 997.89 998.26 998.91 999.82 1000.94 1002.21 1003.56 1004.95 1006.31 1007.61 1008.81 1009.91 1010.90 1011.80 1012.63 1013.40 1014.13 1014.84 1015.54 1016.23 1016.90 1017.55 1018.17 1018.77 1019.32 1019.82 1020.28 1020.69 1021.06 1021.37 1021.65 1021.88 1022.09 1022.28
1003.42 1002.22 1001.04 999.93 998.95 998.16 997.59 997.27 997.24 997.48 998.00 998.77 999.75 1000.90 1002.16 1003.48 1004.80 1006.10 1007.33 1008.48 1009.55 1010.52 1011.42 1012.26 1013.06 1013.82 1014.55 1015.26 1015.96 1016.63 1017.27 1017.87 1018.44 1018.97 1019.46 1019.90 1020.30 1020.66 1020.98 1021.27 1021.53 1021.77 1021.98
1002.39 1001.10 999.86 998.75 997.82 997.12 996.68 996.52 996.65 997.06 997.73 998.61 999.68 1000.87 1002.13 1003.43 1004.71 1005.95 1007.12 1008.23 1009.26 1010.22 1011.12 1011.97 1012.78 1013.57 1014.32 1015.05 1015.75 1016.41 1017.03 1017.62 1018.16 1018.66 1019.12 1019.55 1019.94 1020.30 1020.64 1020.95 1021.24 1021.51 1021.76
1001.43 1000.07 998.80 997.69 996.79 996.16 995.83 995.80 996.08 996.63 997.42 998.41 999.55 1000.78 1002.06 1003.34 1004.59 1005.79 1006.92 1007.99 1009.00 1009.95 1010.86 1011.73 1012.56 1013.37 1014.15 1014.90 1015.60 1016.26 1016.88 1017.44 1017.96 1018.44 1018.88 1019.29 1019.68 1020.04 1020.40 1020.73 1021.06 1021.36 1021.64
1000.65 999.25 997.96 996.85 995.98 995.40 995.14 995.20 995.56 996.21 997.09 998.16 999.35 1000.61 1001.90 1003.18 1004.41 1005.58 1006.69 1007.74 1008.74 1009.69 1010.61 1011.50 1012.37 1013.21 1014.02 1014.79 1015.51 1016.18 1016.80 1017.35 1017.86 1018.32 1018.75 1019.15 1019.53 1019.91 1020.27 1020.63 1020.98 1021.31 1021.63
1000.14 998.74 997.44 996.34 995.48 994.92 994.69 994.78 995.18 995.87 996.79 997.88 999.10 1000.38 1001.67 1002.94 1004.17 1005.33 1006.43 1007.47 1008.47 1009.43 1010.36 1011.28 1012.17 1013.04 1013.89 1014.69 1015.43 1016.13 1016.75 1017.32 1017.83 1018.29 1018.72 1019.11 1019.50 1019.88 1020.25 1020.63 1020.99 1021.35 1021.69
999.98 998.60 997.32 996.22 995.36 994.79 994.53 994.61 994.99 995.66 996.56 997.65 998.86 1000.13 1001.42 1002.68 1003.90 1005.06 1006.15 1007.20 1008.19 1009.16 1010.10 1011.03 1011.95 1012.85 1013.72 1014.55 1015.32 1016.04 1016.70 1017.29 1017.81 1018.29 1018.73 1019.13 1019.52 1019.91 1020.29 1020.67 1021.05 1021.42 1021.77
1000.18 998.85 997.60 996.50 995.62 995.01 994.70 994.71 995.02 995.63 996.47 997.51 998.69 999.93 1001.21 1002.46 1003.68 1004.83 1005.92 1006.96 1007.95 1008.91 1009.85 1010.77 1011.69 1012.59 1013.48 1014.32 1015.13 1015.87 1016.56 1017.18 1017.74 1018.24 1018.70 1019.13 1019.54 1019.93 1020.33 1020.72 1021.10 1021.47 1021.83
1000.67 999.41 998.19 997.09 996.18 995.51 995.12 995.03 995.25 995.76 996.52 997.49 998.62 999.83 1001.08 1002.33 1003.54 1004.69 1005.77 1006.80 1007.77 1008.70 1009.61 1010.51 1011.40 1012.28 1013.15 1013.99 1014.81 1015.58 1016.29 1016.95 1017.55 1018.09 1018.58 1019.04 1019.47 1019.89 1020.29 1020.69 1021.08 1021.46 1021.81
1001.34 1000.14 998.96 997.85 996.89 996.15 995.66 995.46 995.57 995.98 996.65 997.55 998.63 999.81 1001.05 1002.29 1003.50 1004.64 1005.72 1006.72 1007.66 1008.55 1009.40 1010.24 1011.08 1011.91 1012.74 1013.56 1014.37 1015.14 1015.88 1016.57 1017.21 1017.79 1018.33 1018.83 1019.30 1019.74 1020.16 1020.57 1020.97 1021.36 1021.72
1002.05 1000.90 999.73 998.61 997.60 996.77 996.19 995.89 995.89 996.20 996.79 997.63 998.66 999.83 1001.06 1002.30 1003.52 1004.67 1005.73 1006.71 1007.60 1008.43 1009.22 1009.99 1010.74 1011.50 1012.27 1013.05 1013.83 1014.59 1015.34 1016.06 1016.73 1017.36 1017.95 1018.49 1019.00 1019.48 1019.93 1020.36 1020.78 1021.17 1021.55
1002.68 1001.55 1000.38 999.22 998.15 997.25 996.58 996.18 996.09 996.31 996.84 997.63 998.64 999.80 1001.04 1002.30 1003.52 1004.68 1005.74 1006.69 1007.55 1008.32 1009.03 1009.71 1010.38 1011.06 1011.76 1012.48 1013.22 1013.98 1014.73 1015.46 1016.17 1016.84 1017.48 1018.06 1018.61 1019.13 1019.61 1020.07 1020.51 1020.93 1021.32
1003.17 1002.03 1000.83 999.63 998.50 997.53 996.77 996.29 996.12 996.28 996.75 997.51 998.50 999.66 1000.91 1002.19 1003.44 1004.60 1005.66 1006.59 1007.41 1008.14 1008.79 1009.40 1009.99 1010.60 1011.24 1011.91 1012.61 1013.35 1014.09 1014.84 1015.58 1016.29 1016.96 1017.59 1018.18 1018.73 1019.25 1019.74 1020.20 1020.64 1021.05
1003.52 1002.35 1001.11 999.86 998.67 997.63 996.80 996.24 996.01 996.10 996.53 997.26 998.24 999.39 1000.64 1001.93 1003.19 1004.36 1005.42 1006.35 1007.15 1007.84 1008.45 1009.01 1009.56 1010.11 1010.70 1011.34 1012.02 1012.75 1013.50 1014.26 1015.01 1015.75 1016.45 1017.12 1017.74 1018.32 1018.87 1019.38 1019.86 1020.32 1020.76
1003.82 1002.62 1001.33 1000.03 998.78 997.68 996.79 996.17 995.87 995.91 996.28 996.96 997.90 999.02 1000.26 1001.53 1002.77 1003.94 1005.00 1005.92 1006.71 1007.38 1007.98 1008.53 1009.05 1009.60 1010.18 1010.80 1011.48 1012.21 1012.97 1013.74 1014.52 1015.27 1015.99 1016.67 1017.32 1017.91 1018.48 1019.00 1019.51 1019.99 1020.44
1004.20 1002.97 1001.65 1000.32 999.03 997.88 996.93 996.26 995.89 995.86 996.16 996.76 997.62 998.67 999.84 1001.06 1002.26 1003.39 1004.42 1005.32 1006.10 1006.78 1007.39 1007.94 1008.49 1009.05 1009.65 1010.30 1011.00 1011.74 1012.52 1013.30 1014.09 1014.85 1015.58 1016.27 1016.91 1017.51 1018.07 1018.61 1019.12 1019.61 1020.09
1004.78 1003.55 1002.24 1000.90 999.60 998.42 997.44 996.71 996.27 996.15 996.35 996.83 997.57 998.50 999.56 1000.66 1001.77 1002.82 1003.79 1004.65 1005.42 1006.10 1006.72 1007.30 1007.88 1008.49 1009.13 1009.82 1010.55 1011.33 1012.12 1012.92 1013.71 1014.47 1015.19 1015.87 1016.50 1017.09 1017.64 1018.17 1018.69 1019.18 1019.67
1005.64 1004.46 1003.19 1001.88 1000.61 999.44 998.44 997.67 997.16 996.94 997.01 997.34 997.92 998.67 999.55 1000.49 1001.45 1002.37 1003.24 1004.03 1004.76 1005.42 1006.05 1006.66 1007.29 1007.94 1008.63 1009.36 1010.14 1010.94 1011.76 1012.57 1013.35 1014.10 1014.80 1015.46 1016.07 1016.63 1017.17 1017.69 1018.20 1018.70 1019.19
1006.78 1005.70 1004.53 1003.31 1002.11 1000.98 999.99 999.19 998.62 998.29 998.21 998.38 998.75 999.29 999.95 1000.68 1001.44 1002.19 1002.92 1003.60 1004.25 1004.87 1005.49 1006.11 1006.76 1007.44 1008.17 1008.94 1009.75 1010.57 1011.40 1012.21 1012.98 1013.71 1014.39 1015.01 1015.59 1016.14 1016.65 1017.16 1017.66 1018.16 1018.67
Thickness
5681 5679 5678 5677 5677 5677 5676 5676 5675 5675 5674 5672 5670 5668 5667 5665 5663 5661 5658 5656 5654 5652 5651 5650 5648 5647 5645 5643 5642 5640 5638 5635 5631 5632 5634 5635 5634 5632 5631 5630 5630 5629 5629
5677 5675 5673 5672 5672 5671 5671 5671 5671 5670 5669 5668 5666 5664 5663 5661 5659 5657 5654 5652 5649 5647 5646 5644 5643 5642 5639 5638 5636 5634 5633 5632 5628 5625 5626 5627 5627 5627 5626 5625 5625 5624 5624
5672 5670 5668 5667 5666 5665 5665 5665 5665 5664 5663 5663 5661 5659 5657 5656 5654 5652 5650 5647 5645 5643 5641 5640 5638 5636 5633 5632 5630 5629 5628 5628 5625 5621 5620 5621 5621 5621 5620 5620 5620 5619 5619
5667 5664 5662 5661 5660 5660 5660 5659 5659 5658 5657 5656 5655 5654 5653 5651 5649 5647 5645 5642 5640 5638 5637 5636 5634 5632 5629 5627 5625 5623 5622 5620 5619 5616 5614 5614 5614 5615 5614 5613 5612 5613 5613
5661 5658 5657 5656 5656 5655 5654 5653 5652 5651 5651 5649 5648 5648 5647 5645 5644 5641 5639 5637 5634 5632 5631 5631 5629 5628 5626 5624 5622 5619 5617 5615 5613 5610 5609 5608 5607 5607 5607 5608 5606 5606 5608
5655 5653 5652 5651 5650 5649 5648 5647 5646 5645 5644 5643 5641 5641 5640 5639 5638 5636 5633 5631 5629 5627 5625 5625 5624 5622 5621 5619 5617 5616 5614 5611 5608 5606 5604 5602 5602 5603 5603 5603 5601 5599 5599
5649 5647 5646 5645 5644 5644 5643 5641 5639 5638 5637 5636 5635 5634 5632 5631 5631 5629 5627 5625 5623 5622 5621 5619 5619 5618 5615 5613 5611 5610 5608 5607 5605 5603 5600 5598 5598 5598 5597 5597 5596 5595 5594
5644 5642 5641 5640 5639 5638 5637 5635 5633 5632 5630 5630 5629 5628 5626 5625 5624 5623 5621 5619 5618 5617 5616 5615 5613 5611 5610 5607 5605 5603 5601 5601 5600 5599 5598 5596 5595 5594 5593 5592 5592 5592 5591
5638 5637 5636 5635 5633 5631 5630 5628 5628 5626 5625 5624 5623 5621 5620 5618 5617 5617 5615 5613 5612 5612 5611 5610 5608 5605 5605 5603 5599 5596 5595 5594 5594 5593 5593 5592 5591 5589 5588 5585 5584 5583 5583
5632 5631 5631 5630 5628 5626 5625 5623 5623 5621 5619 5619 5617 5616 5614 5612 5611 5610 5608 5607 5605 5605 5605 5603 5602 5599 5598 5596 5593 5591 5588 5587 5587 5587 5586 5585 5584 5583 5582 5580 5578 5577 5576
5626 5625 5624 5624 5623 5621 5619 5618 5616 5614 5613 5612 5610 5609 5608 5606 5605 5603 5601 5599 5598 5598 5597 5595 5594 5593 5591 5590 5587 5585 5583 5582 5581 5580 5579 5578 5577 5576 5575 5574 5574 5572 5571
5619 5618 5617 5617 5617 5616 5613 5611 5610 5608 5606 5604 5603 5601 5601 5600 5598 5597 5595 5594 5593 5590 5589 5588 5586 5585 5584 5582 5580 5579 5578 5576 5574 5573 5571 5570 5569 5569 5568 5568 5568 5568 5568
5610 5609 5609 5610 5609 5608 5606 5604 5603 5601 5599 5597 5595 5594 5593 5592 5591 5590 5588 5587 5586 5584 5582 5581 5579 5578 5576 5575 5574 5573 5571 5568 5566 5564 5563 5562 5562 5562 5561 5560 5560 5560 5561
5602 5601 5602 5601 5601 5600 5599 5598 5596 5593 5591 5590 5588 5587 5586 5584 5583 5581 5580 5579 5578 5575 5573 5572 5571 5570 5568 5567 5566 5564 5562 5560 5559 5557 5556 5555 5554 5553 5552 5552 5551 5551 5551
5594 5594 5593 5593 5592 5591 5591 5590 5589 5587 5587 5585 5582 5580 5578 5576 5575 5574 5572 5571 5569 5567 5565 5563 5561 5559 5558 5557 5556 5555 5554 5552 5550 5548 5547 5546 5545 5544 5544 5544 5543 5543 5542
5585 5585 5584 5584 5583 5582 5582 5580 5580 5580 5580 5578 5577 5575 5573 5571 5569 5568 5566 5564 5562 5560 5557 5555 5553 5552 5550 5549 5547 5546 5545 5543 5541 5540 5538 5536 5535 5535 5534 5535 5535 5534 5534
5577 5577 5576 5575 5575 5574 5574 5573 5571 5569 5569 5569 5568 5567 5565 5563 5561 5560 5558 5556 5554 5552 5549 5548 5547 5545 5543 5542 5540 5538 5536 5535 5533 5531 5530 5529 5528 5527 5527 5527 5526 5526 5526
5570 5569 5568 5567 5567 5566 5566 5566 5565 5563 5561 5559 5559 5558 5557 5555 5553 5552 5550 5547 5545 5544 5542 5541 5540 5539 5537 5535 5533 5531 5529 5527 5525 5523 5522 5521 5520 5519 5519 5518 5518 5518 5518
5562 5560 5560 5559 5559 5559 5558 5557 5557 5557 5555 5553 5551 5549 5548 5546 5545 5543 5542 5540 5538 5537 5536 5535 5534 5532 5530 5528 5527 5525 5523 5521 5519 5517 5515 5514 5513 5512 5511 5511 5510 5510 5510
5553 5553 5552 5551 5551 5550 5550 5549 5549 5549 5547 5545 5544 5542 5539 5537 5535 5534 5533 5533 5532 5531 5529 5527 5526 5525 5523 5521 5520 5518 5516 5514 5511 5510 5508 5506 5505 5504 5504 5503 5502 5502 5502
5544 5544 5544 5543 5542 5542 5541 5541 5541 5540 5539 5537 5536 5535 5533 5530 5529 5528 5527 5526 5525 5525 5523 5521 5519 5517 5516 5514 5512 5510 5508 5506 5505 5503 5501 5500 5498 5497 5497 5496 5495 5494 5494
5536 5535 5535 5534 5534 5533 5533 5533 5533 5532 5531 5529 5528 5526 5524 5523 5522 5520 5520 5519 5519 5518 5516 5514 5512 5510 5509 5507 5505 5503 5501 5499 5497 5496 5494 5493 5491 5490 5489 5488 5488 5487 5486
5528 5527 5526 5525 5524 5524 5524 5524 5524 5523 5522 5521 5519 5518 5516 5515 5514 5513 5513 5512 5511 5510 5508 5507 5505 5503 5502 5500 5499 5497 5494 5492 5491 5489 5487 5486 5484 5483 5482 5481 5480 5479 5478
5519 5517 5516 5515 5515 5515 5514 5514 5514 5514 5513 5512 5511 5510 5509 5507 5507 5506 5505 5504 5503 5502 5501 5499 5498 5496 5495 5493 5491 5489 5488 5486 5484 5482 5480 5478 5477 5476 5474 5473 5472 5471 5471
5509 5508 5507 5507 5506 5505 5505 5505 5504 5504 5503 5503 5502 5501 5500 5499 5498 5497 5496 5495 5494 5493 5493 5491 5490 5488 5487 5486 5484 5481 5479 5478 5476 5474 5473 5471 5469 5468 5466 5466 5465 5463 5463
5500 5500 5499 5498 5497 5496 5495 5495 5494 5494 5494 5493 5493 5492 5491 5490 5489 5488 5487 5486 5485 5484 5483 5482 5481 5480 5479 5477 5475 5474 5472 5470 5468 5467 5465 5464 5462 5461 5459 5458 5458 5457 5456